Weather in Oki Island

Japan     36°15′05″N   133°16′44″E
temp.,
°C
wind,
m/s
gust,
m/s
humid.,
%
clouds,
%
prec.,
mm/h
press.,
hPa
HPBL,
m
23 april, fri
fri2300:00+12ene5137226 0.0 1022398
03:00+11e51374100 0.0 1021440
06:00+11ene51269100 0.0 1021476
09:00+13e61265100 0.0 1022566
12:00+14e61061100 0.0 1022597
15:00+14ene5860100 0.0 1020504
18:00+12ne51073100 0.0 1021524
21:00+10ene51079100 0.0 1022444
24 april, sat
sat2400:00+11e51078100 0.0 1021434
03:00+10ene2386100 0.0 102194
06:00+10ene2385100 0.0 1021108
09:00+16ene226394 0.0 1021476
12:00+19nnw0253100 0.0 1020942
15:00+18n225899 0.0 1018823
18:00+14ne1174100 0.0 101997
21:00+10sse1188100 0.0 102053
25 april, sun
sun2500:00+10wnw1190100 0.0 101943
03:00+10n367790 0.0 1019204
06:00+11nne3577100 0.0 1019198
09:00+14nne455657 0.0 1019831
12:00+14nne666931 0.1 10201108
15:00+12nne677799 0.2 1020876
18:00+10nne69600 0.0 1021899
21:00+9ne59590 0.0 1023472
26 april, mon
mon2600:00+7ne35640 0.0 1023114
03:00+8ne48620 0.0 1023252
06:00+9ne49620 0.0 1023418
09:00+12ne57470 0.0 10241184
12:00+14ene56400 0.0 10231203
15:00+13e56425 0.0 1022960
18:00+10e46555 0.0 1023616
21:00+7e47673 0.0 1024202
27 april, tue
tue2700:00+7ese3673100 0.0 1023177
03:00+7ese347817 0.0 1022120
06:00+8se357998 0.0 1022115
09:00+15s3649100 0.0 1021448
12:00+17sw3841100 0.0 1021910
15:00+17wsw61156100 0.0 1020964
18:00+15sw2974100 0.0 1020372
21:00+14ssw398387 0.0 1021331